Abilene, TX

5:35 PM CST on February 09, 2016 (GMT -0600)
Abilene Regional

Weather History for KABI - April, 2014

Change the Weather History Date:

Thursday, April 3, 2014

  Actual Average Record
Temperature  
Mean Temperature 73 °F 61 °F  
Max Temperature 92 °F 74 °F 97 °F (2011)
Min Temperature 54 °F 48 °F 29 °F (1987)
Degree Days  
Heating Degree Days 0 6  
Month to date heating degree days 0 18  
Since 1 July heating degree days 2702 2449  
Cooling Degree Days 8 2  
Month to date cooling degree days 26 6  
Year to date cooling degree days 70 40  
Growing Degree Days 28 (Base 50)    
Moisture  
Dew Point 45 °F    
Average Humidity 46    
Maximum Humidity 78    
Minimum Humidity 14    
Precipitation  
Precipitation 0.00 in 0.04 in 1.92 in (1922)
Month to date precipitation 0.00 0.13  
Year to date precipitation 1.16 4.25  
Sea Level Pressure  
Sea Level Pressure 29.65 in    
Wind  
Wind Speed 15 mph (WSW)    
Max Wind Speed 37 mph    
Max Gust Speed 44 mph    
Visibility 10 miles    
Events      
T = Trace of Precipitation, MM = Missing Value Source: NWS Daily Summary

Daily Weather History Graph

Daily Weather History Graph

Search for Another Location

Airport or City:

Trip Planner

Search our weather history database for the weather conditions in past years. The results will help you decide how hot, cold, wet, or windy it might be!

Date:

Astronomy

Apr. 03, 2014 Rise Set
Actual Time 7:24 AM CDT 8:00 PM CDT
Civil Twilight 6:59 AM CDT 8:24 PM CDT
Nautical Twilight 6:30 AM CDT 8:54 PM CDT
Astronomical Twilight 6:00 AM CDT 9:23 PM CDT
Moon 10:05 AM CDT (4/3) No Moon Set
Length of Visible Light 13h 25m
Length of Day
12h 35m
Waxing Crescent, 17% of the Moon is Illuminated
Apr 3
Waxing Crescent
Apr 7
First Quarter
Apr 15
Full
Apr 22
Last Quarter
Apr 29
New

Hourly Weather History & Observations

Time (CDT) Temp. Dew Point Humidity Pressure Visibility Wind Dir Wind Speed Gust Speed Precip Events Conditions
12:52 AM 71.1 °F 62.1 °F 73% 29.59 in 10.0 mi SSE 16.1 mph - N/A   Clear
1:52 AM 73.9 °F 61.0 °F 64% 29.58 in 10.0 mi South 18.4 mph 28.8 mph N/A   Clear
2:52 AM 73.0 °F 60.1 °F 64% 29.60 in 10.0 mi South 19.6 mph 29.9 mph N/A   Clear
3:52 AM 71.1 °F 60.1 °F 68% 29.60 in 10.0 mi South 10.4 mph - N/A   Clear
4:52 AM 70.0 °F 60.1 °F 71% 29.60 in 10.0 mi South 8.1 mph - N/A   Clear
5:52 AM 66.9 °F 59.0 °F 76% 29.61 in 10.0 mi SSE 6.9 mph - N/A   Clear
6:52 AM 69.1 °F 59.0 °F 70% 29.62 in 10.0 mi South 8.1 mph - N/A   Clear
7:52 AM 68.0 °F 59.0 °F 73% 29.64 in 7.0 mi SSE 9.2 mph - N/A   Clear
8:52 AM 72.0 °F 60.1 °F 66% 29.65 in 8.0 mi South 8.1 mph - N/A   Clear
9:52 AM 75.9 °F 57.0 °F 52% 29.67 in 9.0 mi SSW 12.7 mph - N/A   Clear
10:52 AM 82.0 °F 51.1 °F 34% 29.66 in 10.0 mi WSW 11.5 mph - N/A   Clear
11:52 AM 84.9 °F 39.0 °F 20% 29.66 in 10.0 mi WSW 10.4 mph - N/A   Clear
12:52 PM 88.0 °F 35.1 °F 15% 29.64 in 10.0 mi West 11.5 mph - N/A   Clear
1:52 PM 90.0 °F 37.0 °F 15% 29.62 in 10.0 mi WNW 13.8 mph 21.9 mph N/A   Clear
2:52 PM 90.0 °F 36.0 °F 15% 29.60 in 10.0 mi SSW 15.0 mph 31.1 mph N/A   Clear
3:52 PM 90.0 °F 37.0 °F 15% 29.57 in 10.0 mi NW 18.4 mph 26.5 mph N/A   Clear
3:59 PM 91.0 °F 37.9 °F 15% 29.66 in 10.0 mi WNW 18.4 mph 24.2 mph N/A   Clear
4:52 PM 90.0 °F 37.0 °F 15% 29.58 in 10.0 mi West 21.9 mph 33.4 mph N/A   Clear
5:52 PM 87.1 °F 34.0 °F 15% 29.61 in 10.0 mi WNW 24.2 mph 32.2 mph N/A   Clear
6:52 PM 84.0 °F 32.0 °F 15% 29.63 in 9.0 mi WNW 25.3 mph 36.8 mph N/A   Clear
7:52 PM 78.1 °F 26.1 °F 15% 29.70 in 8.0 mi WNW 15.0 mph 29.9 mph N/A   Clear
8:52 PM 73.9 °F 21.9 °F 14% 29.75 in 8.0 mi NW 23.0 mph 33.4 mph N/A   Overcast
10:52 PM 66.0 °F 16.0 °F 15% 29.86 in 10.0 mi North 10.4 mph - N/A   Clear
11:52 PM 57.9 °F 33.1 °F 39% 29.94 in 9.0 mi North 23.0 mph 38.0 mph N/A   Clear